Terminal Aerodrome Forecast
Issued by NWS Portland, OR

Home | Current Version | Previous Version | Text Only | Print | Product List | Glossary On
Versions: 1 2 3 4 5 6 7 8 9 10 11 12 13 14 15 16 17 18
000
FTUS46 KPQR 201125
TAFSLE
TAF
KSLE 201125Z 2012/2112 22006KT P6SM SCT200
     FM201400 VRB03KT 6SM BR SCT015 BKN150
     FM201800 18005KT P6SM SCT250
     FM210600 19003KT P6SM OVC250=

USA.gov is the U.S. government's official web portal to all federal, state and local government web resources and services.